Simultaneous Nadir Overpasses (SNOs) Predictions

Prediction of SNOs between LANDSAT-8 and METOP-B Satellite Orbit:

Table of predicted SNOs for the next 14.0 days since TLE Epoch: 12/22/2018
Index Date (LANDSAT-8) Time (LANDSAT-8) Lat,Lon (LANDSAT-8) SZA (LANDSAT-8 ) Date (METOP-B) Time (METOP-B) Lat,Lon (METOP-B) SZA (METOP-B ) Distance(km) Time Diff (sec)
1 12/22/2018 09:53:28 -81.10,-108.93 73.55 12/22/2018 09:52:46 -81.10,-108.94 73.57 0.43 42
2 12/22/2018 10:42:54 81.11, 58.81 106.47 12/22/2018 10:43:26 81.11, 58.72 106.47 1.52 32
3 12/25/2018 05:27:44 -81.10, -42.45 73.62 12/25/2018 05:27:11 -81.09, -42.55 73.65 1.96 33
4 12/25/2018 06:17:09 81.11, 125.26 106.39 12/25/2018 06:17:49 81.12, 125.44 106.43 3.27 40
5 12/28/2018 01:02:00 -81.09, 23.77 73.79 12/28/2018 01:01:35 -81.09, 23.81 73.79 1.01 25
6 12/28/2018 01:51:25 81.12,-168.19 106.27 12/28/2018 01:52:14 81.11,-168.24 106.29 0.84 49
7 12/30/2018 20:36:16 -81.10, 90.44 73.95 12/30/2018 20:35:59 -81.10, 90.54 73.95 1.65 17
8 12/30/2018 21:25:41 81.13,-101.54 106.11 12/30/2018 21:26:38 81.12,-101.55 106.12 0.70 57
9 01/02/2019 16:10:33 -81.10, 156.85 74.21 01/02/2019 16:10:24 -81.10, 156.87 74.21 0.31 9




NCC Satellite Simultaneous Nadir Overpasses (SNOs) Prediction Service
